Time,TemperatureF,DewpointF,PressureIn,WindDirection,WindDirectionDegrees,WindSpeedMPH,WindSpeedGustMPH,Humidity,HourlyPrecipIn,Conditions,Clouds,dailyrainin,SoftwareType,DateUTC
2016-12-05 00:13:00,45.0,45.0,-100.00,NNW,342,5.0,13.0,100,-99.99,,,-99.99,,2016-12-05 08:13:00,
2016-12-05 00:23:00,45.0,45.0,-100.00,NNW,342,5.0,13.0,100,-99.99,,,-99.99,,2016-12-05 08:23:00,
2016-12-05 00:34:00,45.0,45.0,-100.00,NNW,342,5.0,13.0,100,-99.99,,,-99.99,,2016-12-05 08:34:00,
2016-12-05 00:43:00,45.0,45.0,-100.00,NNW,342,5.0,13.0,100,-99.99,,,-99.99,,2016-12-05 08:43:00,
2016-12-05 00:50:00,44.0,44.0,-100.00,NNW,329,4.0,17.0,99,-99.99,,,-99.99,,2016-12-05 08:50:00,
2016-12-05 01:13:00,44.0,44.0,-100.00,NNW,329,4.0,17.0,99,-99.99,,,-99.99,,2016-12-05 09:13:00,
2016-12-05 01:23:00,44.0,44.0,-100.00,NNW,329,4.0,17.0,99,-99.99,,,-99.99,,2016-12-05 09:23:00,
2016-12-05 01:33:00,44.0,44.0,-100.00,NNW,329,4.0,17.0,99,-99.99,,,-99.99,,2016-12-05 09:33:00,
2016-12-05 01:43:00,44.0,44.0,-100.00,NNW,329,4.0,17.0,99,-99.99,,,-99.99,,2016-12-05 09:43:00,
2016-12-05 01:50:00,44.0,44.0,-100.00,NNW,339,4.0,11.0,100,-99.99,,,-99.99,,2016-12-05 09:50:00,
2016-12-05 02:13:00,44.0,44.0,-100.00,NNW,339,4.0,11.0,100,-99.99,,,-99.99,,2016-12-05 10:13:00,
2016-12-05 02:23:00,44.0,44.0,-100.00,NNW,339,4.0,-999.0,100,-99.99,,,-99.99,,2016-12-05 10:23:00,
2016-12-05 02:35:00,44.0,44.0,-100.00,NNW,339,4.0,11.0,100,-99.99,,,-99.99,,2016-12-05 10:35:00,
2016-12-05 02:43:00,44.0,44.0,-100.00,NNW,339,4.0,11.0,100,-99.99,,,-99.99,,2016-12-05 10:43:00,
2016-12-05 02:50:00,45.0,44.0,-100.00,NNW,330,5.0,12.0,98,-99.99,,,-99.99,,2016-12-05 10:50:00,
2016-12-05 03:13:00,45.0,44.0,-100.00,NNW,330,5.0,12.0,98,-99.99,,,-99.99,,2016-12-05 11:13:00,
2016-12-05 03:33:00,45.0,44.0,-100.00,NNW,330,5.0,12.0,98,-99.99,,,-99.99,,2016-12-05 11:33:00,
2016-12-05 03:43:00,45.0,44.0,-100.00,NNW,330,5.0,12.0,98,-99.99,,,-99.99,,2016-12-05 11:43:00,
2016-12-05 03:50:00,44.0,43.0,-100.00,NNW,330,4.0,10.0,96,-99.99,,,-99.99,,2016-12-05 11:50:00,
2016-12-05 04:13:00,44.0,43.0,-100.00,NNW,330,4.0,10.0,96,-99.99,,,-99.99,,2016-12-05 12:13:00,
2016-12-05 04:23:00,44.0,43.0,-100.00,NNW,330,4.0,10.0,96,-99.99,,,-99.99,,2016-12-05 12:23:00,
2016-12-05 04:34:00,44.0,43.0,-100.00,NNW,330,4.0,10.0,96,-99.99,,,-99.99,,2016-12-05 12:34:00,
2016-12-05 04:44:00,44.0,43.0,-100.00,NNW,330,4.0,10.0,96,-99.99,,,-99.99,,2016-12-05 12:44:00,
2016-12-05 04:50:00,44.0,43.0,-100.00,NNW,334,5.0,11.0,98,-99.99,,,-99.99,,2016-12-05 12:50:00,
2016-12-05 05:13:00,44.0,43.0,-100.00,NNW,334,5.0,11.0,98,-99.99,,,-99.99,,2016-12-05 13:13:00,
2016-12-05 05:23:00,44.0,43.0,-100.00,NNW,334,5.0,11.0,98,-99.99,,,-99.99,,2016-12-05 13:23:00,
2016-12-05 05:34:00,44.0,43.0,-100.00,NNW,334,5.0,11.0,98,-99.99,,,-99.99,,2016-12-05 13:34:00,
2016-12-05 05:45:00,44.0,43.0,-100.00,NNW,334,5.0,11.0,98,-99.99,,,-99.99,,2016-12-05 13:45:00,
2016-12-05 05:50:00,43.0,42.0,-100.00,NNW,344,5.0,11.0,97,-99.99,,,-99.99,,2016-12-05 13:50:00,
2016-12-05 06:13:00,43.0,42.0,-100.00,NNW,344,5.0,-999.0,97,-99.99,,,-99.99,,2016-12-05 14:13:00,
2016-12-05 06:24:00,43.0,42.0,-100.00,NNW,344,5.0,11.0,97,-99.99,,,-99.99,,2016-12-05 14:24:00,
2016-12-05 06:33:00,43.0,42.0,-100.00,NNW,344,5.0,11.0,97,-99.99,,,-99.99,,2016-12-05 14:33:00,
2016-12-05 06:43:00,43.0,42.0,-100.00,NNW,344,5.0,11.0,97,-99.99,,,-99.99,,2016-12-05 14:43:00,
2016-12-05 06:50:00,43.0,41.0,-100.00,NNW,334,4.0,9.0,91,-99.99,,,-99.99,,2016-12-05 14:50:00,
2016-12-05 07:13:00,43.0,41.0,-100.00,NNW,334,4.0,9.0,91,-99.99,,,-99.99,,2016-12-05 15:13:00,
2016-12-05 07:23:00,43.0,41.0,-100.00,NNW,334,4.0,9.0,91,-99.99,,,-99.99,,2016-12-05 15:23:00,
2016-12-05 07:33:00,43.0,41.0,-100.00,NNW,334,4.0,9.0,91,-99.99,,,-99.99,,2016-12-05 15:33:00,
2016-12-05 07:43:00,43.0,41.0,-100.00,NNW,334,4.0,9.0,91,-99.99,,,-99.99,,2016-12-05 15:43:00,
2016-12-05 08:13:00,43.0,40.0,-100.00,North,7,4.0,9.0,88,-99.99,,,-99.99,,2016-12-05 16:13:00,
2016-12-05 08:23:00,43.0,40.0,-100.00,North,7,4.0,-999.0,88,-99.99,,,-99.99,,2016-12-05 16:23:00,
2016-12-05 08:33:00,43.0,40.0,-100.00,North,7,4.0,9.0,88,-99.99,,,-99.99,,2016-12-05 16:33:00,
2016-12-05 08:43:00,43.0,40.0,-100.00,North,7,4.0,9.0,88,-99.99,,,-99.99,,2016-12-05 16:43:00,